STARLINK-5643, 55431

Orbit data source: Space-Track

STARLINK-5643, 55431 is a payload satellite owned by SpaceX/Seattle (US) in LEO that was launched on Tue, 31 Jan 2023 UTC via an FALCON 9 launch vehicle from the Air Force Western Test Range (AFWTR). Payload-class satellites include a variety of spacecraft equipped with specific instruments for various scientific and technological missions. These include communications satellites like Starlink; space stations such as the ISS; scientific satellites like the Hubble; Earth observation satellites from companies like Planet Labs, Umbra, and HawkEye 360; GPS; miniature CubeSats for education and research; and military/defense satellites.

Loading next visibility...
Identifier
55431, 2023-014AS
Orbit
LEO
Country
Flag of USUS
Related business
Manufacturer
SpaceX/Seattle
Mission
Operational Commercial Communications
Bus & Motor
STARLINK, Unknown motor
Mass
305 kg wet, ~290 kg dry
Launch date (UTC)
2023-01-31 (3 years ago)
Launch vehicle
FALCON 9
Launch site
Air Force Western Test Range (AFWTR)
Object type
Payload
Rocket body
Debris
Shape & HBR
Box + 1 Pan, 10.1 m
Radar Cross Section
13.562 m², Large (>1 m²)

Expand to show TLE details & history
Last TLE update: 2 days ago

TLE from 2 days ago
0 STARLINK-5643
1 55431U 23014AS  26171.40297443 -.00000908  00000-0 -68312-4 0  9991
2 55431  69.9991 185.6387 0003150 259.2345 100.8460 14.98328839186942
Epoch: 2026-06-20T09:40Z
TLE epoch observation values (Epoch: 2026-06-20T09:40:16.990Z)
Latitude
Longitude
131.94981°
Altitude
574.896 km
Speed
7.573 km/s
True Right ascension
12h 22m 33s
True Declination
0° 00' 00"
Sunlit
Object was in daylight at epoch
Visualization orbit readout
Latitude
Unknown
Longitude
Unknown
Altitude
Unknown
Speed
Unknown
Apparent Right ascension
Unknown
Apparent Declination
Unknown
Sunlit
N/A
Visualization observer readout
Local Sidereal Time
21:23:33
Azimuth
Unknown
Elevation
Unknown
Doppler factor
Unknown
Orbital elements
Apogee altitude
572.196 km
Perigee altitude
567.819 km
Semi-major axis
6,948.145 km
Eccentricity
0.00032
Inclination
69.9991°
RAAN
185.6387°
Arg. of periapsis
259.2345°
True anomaly
100.88145°
Mean anomaly
100.846°
Eccentric anomaly
100.86372°
Mean motion
3.74748 °/min
Orbital period
96.06 mins
BSTAR
-0.000068312
Loading maneuver chart data...
Computing Atmospheric mass density...

Documentation

Showing up to 5 results
|